Flag for U.S.A. Weather past 2 weeks in Las Cruces, New Mexico, U.S.A.

57 °F


Feels Like: 57 °F
Forecast: 54 / 78 °F
Wind: 3 mph from North

Location: Las Cruces International

Current Time: Oct 10, 2015 at 3:53:07 AM

Latest Report: Oct 10, 2015 at 3:15 AM

Visibility: 10 mi

Pressure: 30.36 "Hg (26.36 "Hg at 1187m altitude)

Humidity: 87%

Dew point: 53 °F

Location of Las CrucesLocation

Historic Weather in Las Cruces — Graph


Las Cruces temperature yesterday

Maximum temperature yesterday: 75 °F (at 1:35 PM)
Minimum temperature yesterday: 56 °F (at 1:35 AM)
Average temperature yesterday: 64 °F

Past Weeks' High & Low Weather Summary

High95 °F (Sep 28, 3:15 PM)97% (Oct 4, 7:35 AM)30.37 "Hg (Oct 4, 7:35 AM)
Low52 °F (Oct 8, 6:35 AM)11% (Sep 28, 1:55 PM)29.78 "Hg (Oct 3, 5:15 PM)
Average69 °F53%30.11 "Hg
* Reported Sep 25 2:15 AM — Oct 10 2:55 AM, Las Cruces, Weather by CustomWeather, © 2015

Note: Actual official high and low records may vary slightly from our data, if they occured in-between our weather recording intervals... More about our weather records


Las Cruces weather history for previous 24 hours

Time TempWeatherWind HumidityBarometerVisibility
2:55 AM
Sat, Oct 10
59 °FPassing clouds.3 mph82%30.37 "Hg10 mi
2:15 AM61 °FOvercast.3 mph77%30.37 "Hg10 mi
1:55 AM61 °FPassing clouds.7 mph77%30.36 "Hg10 mi
1:15 AM62 °FClear.10 mph73%30.36 "Hg10 mi
12:55 AM61 °FClear.7 mph76%30.36 "Hg10 mi
12:35 AM61 °FClear.8 mph78%30.35 "Hg10 mi
12:15 AM61 °FClear.7 mph79%30.35 "Hg10 mi
11:55 PM
Fri, Oct 9
61 °FClear.6 mph78%30.35 "Hg10 mi
11:35 PM62 °FClear.7 mph79%30.35 "Hg10 mi
11:15 PM62 °FClear.7 mph78%30.34 "Hg10 mi
10:55 PM63 °FClear.5 mph75%30.35 "Hg10 mi
10:35 PM63 °FClear.6 mph74%30.34 "Hg10 mi
10:15 PM63 °FClear.7 mph73%30.34 "Hg10 mi
9:55 PM64 °FClear.7 mph70%30.33 "Hg10 mi
9:35 PM65 °FClear.9 mph67%30.33 "Hg10 mi
9:15 PM65 °FClear.12 mph66%30.32 "Hg10 mi
8:55 PM65 °FClear.9 mph67%30.32 "Hg10 mi
8:15 PM64 °FClear.5 mph67%30.31 "Hg10 mi
7:55 PM65 °FClear.No wind64%30.31 "Hg10 mi
7:15 PM67 °FScattered clouds.12 mph60%30.30 "Hg10 mi
6:55 PM68 °FBroken clouds.5 mph57%30.30 "Hg10 mi
6:35 PM69 °FBroken clouds.9 mph56%30.29 "Hg10 mi
6:15 PM70 °FBroken clouds.7 mph54%30.29 "Hg10 mi
5:55 PM71 °FPartly sunny.12 mph52%30.28 "Hg10 mi
5:15 PM72 °FPartly sunny.12 mph51%30.29 "Hg10 mi
4:55 PM74 °FPartly sunny.13 mph47%30.29 "Hg10 mi
4:35 PM73 °FBroken clouds.10 mph46%30.29 "Hg10 mi
4:15 PM73 °FBroken clouds.12 mph46%30.28 "Hg10 mi
3:15 PM72 °FCloudy.16 mph50%30.28 "Hg10 mi
2:55 PM72 °FBroken clouds.13 mph49%30.29 "Hg10 mi
2:35 PM72 °FCloudy.10 mph50%30.29 "Hg10 mi
2:15 PM72 °FMostly cloudy.9 mph49%30.29 "Hg10 mi
1:55 PM71 °FMostly cloudy.12 mph51%30.29 "Hg10 mi
1:35 PM75 °FBroken clouds.13 mph45%30.30 "Hg10 mi
1:15 PM74 °FScattered clouds.14 mph46%30.30 "Hg10 mi
12:55 PM74 °FBroken clouds.14 mph45%30.31 "Hg10 mi
12:15 PM72 °FCloudy.12 mph50%30.32 "Hg10 mi
11:55 AM71 °FMostly cloudy.14 mph51%30.32 "Hg10 mi
11:35 AM69 °FMostly cloudy.16 mph55%30.32 "Hg10 mi
11:15 AM69 °FCloudy.13 mph55%30.32 "Hg10 mi
10:55 AM68 °FScattered clouds.9 mph56%30.32 "Hg10 mi
10:35 AM69 °FSunny.8 mph55%30.32 "Hg10 mi
10:15 AM67 °FSunny.9 mph58%30.32 "Hg10 mi
9:55 AM67 °FSunny.9 mph60%30.32 "Hg10 mi
9:35 AM66 °FSunny.9 mph61%30.31 "Hg10 mi
9:15 AM66 °FSunny.8 mph61%30.31 "Hg10 mi
8:55 AM64 °FSunny.9 mph64%30.31 "Hg10 mi
8:35 AM63 °FSunny.6 mph67%30.30 "Hg10 mi
8:15 AM61 °FSunny.No wind74%30.29 "Hg10 mi
7:55 AM59 °FPassing clouds.No wind79%30.28 "Hg10 mi
7:35 AM58 °FOvercast.5 mph80%30.27 "Hg10 mi
7:15 AM58 °FOvercast.3 mph80%30.26 "Hg10 mi
6:55 AM58 °FOvercast.No wind84%30.25 "Hg10 mi
6:35 AM58 °FOvercast.No wind82%30.25 "Hg10 mi
6:15 AM58 °FMostly cloudy.No wind82%30.25 "Hg10 mi
5:55 AM59 °FMostly cloudy.No wind79%30.25 "Hg10 mi
5:35 AM59 °FMostly cloudy.3 mph78%30.24 "Hg10 mi
5:15 AM59 °FMostly cloudy.No wind78%30.24 "Hg10 mi
4:55 AM59 °FOvercast.No wind75%30.24 "Hg10 mi
4:35 AM59 °FPartly cloudy.5 mph75%30.23 "Hg10 mi
4:15 AM58 °FPartly cloudy.8 mph78%30.23 "Hg10 mi
3:55 AM57 °FMostly cloudy.5 mph83%30.23 "Hg10 mi
3:35 AM58 °FMostly cloudy.5 mph81%30.23 "Hg10 mi
3:15 AM58 °FMostly cloudy.No wind79%30.23 "Hg10 mi
Weather by CustomWeather, © 2015

See weather overviewHow to use our weather pages